Tracking 34348 objects as of 9-Jun-2026
HD Live streaming from Space Station
objects crossing your sky now

STARLINK-1274

Track STARLINK-1274 now!
10-day predictions
STARLINK-1274 is classified as:


NORAD ID: 45387
Int'l Code: 2020-019AD
Perigee: 383.9 km
Apogee: 393.8 km
Inclination: 53.0 °
Period: 92.2 minutes
Semi major axis: 6759 km
RCS: Unknown
Launch date: March 18, 2020
Source: United States (US)
Launch site: AIR FORCE EASTERN TEST RANGE (AFETR)
Your satellite tracking list
Your tracking list is empty




NASA's NSSDC Master Catalog

Two Line Element Set (TLE):
1 45387U 20019AD  26159.91670139  .00077870  00000-0  86993-3 0  9995
2 45387  53.0205  21.9618 0007317 143.2259   7.5744 15.62072084  5990
Source of the keplerian elements: AFSPC